Location: Boncourt
(49.6160°N, 3.9448°E)
Time: 00:02:16
(UTC+00:00)

BREEZE-M DEB (TANK) - Pass Details

Date: 09 February 2023
Orbit: 761 x 22167 km, 51.4° (Epoch: 01 April)

Event Time Altitude Azimuth Distance (km) Brightness Sun altitude
Rises 20:16:25 0° 237° (WSW) 10,433 9.3 -33.1°
Reaches altitude 10° 20:26:09 10° 237° (WSW) 6,889 8.2 -34.6°
Enters shadow 20:39:05 60° 214° (SW) 1,621 4.5 -36.6°
